Regional Weather Roundup
Issued by NWS Bismarck, ND

Home | Current Version | Previous Version | Text Only | Print | Product List | Glossary On
Versions: 1 2 3 4 5 6 7 8 9 10 11 12 13 14 15 16 17 18 19 20 21 22 23 24 25 26 27 28 29 30 31 32 33 34 35 36 37 38 39 40 41 42 43 44 45 46 47 48 49 50
000
ASUS43 KBIS 301110
RWRBIS

NWR BROADCAST TEXT
NATIONAL WEATHER SERVICE BISMARCK ND
600 AM CDT SAT MAY 30 2015

NOTE: "FAIR" INDICATES FEW OR NO CLOUDS BELOW 12,000 FEET WITH NO
SIGNIFICANT WEATHER AND/OR OBSTRUCTIONS TO VISIBILITY.


CITY           SKY/WX    TMP DP  RH WIND       PRES   REMARKS
WILLISTON      PTCLDY    41  33  73 E6        30.32R
MINOT          CLEAR     33  28  81 E6        30.39R
MINOT AFB      CLEAR     34  34  99 E6        30.39R
BISMARCK       CLEAR     32  30  92 SE5       30.39R
DICKINSON      CLEAR     32  29  88 E7        30.30R
GARRISON         N/A     37  30  75 E8        30.38R
HETTINGER ARPT CLEAR     32  28  85 CALM      30.31S
JAMESTOWN      CLEAR     34  26  72 NE8       30.38R
BEACH          FAIR      36  36 100 SE9       30.28S
CROSBY         FAIR      37  36  93 E7        30.36R
HARVEY         FAIR      32  28  86 E6        30.41R
HAZEN          FAIR      32  30  93 CALM      30.38S
LINTON         FAIR      32  32 100 E5        30.36S
MANDAN         FAIR      34  32  93 E10       30.38R
OAKES            N/A     34  28  80 N9        30.36R
STANLEY        FAIR      36  36 100 SE9       30.37R
WATFORD CITY   FAIR      36  32  87 SE10      30.30S
$$

CITY           SKY/WX    TMP DP  RH WIND       PRES   REMARKS
GRAND FORKS    PTCLDY    30  25  81 N7        30.39R
GRAND FORKS AF CLEAR     29  24  82 N8        30.39R
DEVILS LAKE    CLEAR     30  19  64 NE7       30.39S
FARGO          CLEAR     35  28  75 N13       30.36R
CANDO          FAIR      32  25  74 NE3       30.41S
CAVALIER       FAIR      32  25  74 N7        30.41R
GRAFTON        FAIR      30  27  86 NW6       30.41R
LANGDON        FAIR      28  23  80 N6        30.39S
ROLLA          FAIR      28  28 100 CALM      30.41R
WALHALLA         N/A     28  27  93 MISG      30.42R
$$

CITY           SKY/WX    TMP DP  RH WIND       PRES   REMARKS
ABERDEEN       CLEAR     38  32  79 N10       30.35R
MOBRIDGE       CLEAR     41  35  79 VRB6      30.33R
BUFFALO          N/A     36  33  89 SE7       30.22S
RAPID CITY     CLEAR     36  34  92 S3        30.30S
GLASGOW        MOCLDY    44  33  65 E15       30.19S
SIDNEY         MOCLDY    39  32  75 CALM      30.29S
WOLF POINT     MOCLDY    40  33  76 E9        30.25S
GLENDIVE       MOCLDY    43  36  75 E8        30.26S
MILES CITY     PTCLDY    47  37  68 SE9       30.18F
BAKER          FLURRIES  35  33  92 E10       30.27S
$$

CITY           SKY/WX    TMP DP  RH WIND       PRES   REMARKS
BILLINGS       MOCLDY    47  44  90 S8        30.11F
GREAT FALLS    MOCLDY    51  45  79 S7        30.03S
REGINA         MOCLDY    37  30  75 SE16      30.35R
$$




USA.gov is the U.S. government's official web portal to all federal, state and local government web resources and services.